This demonstration page uses our WeatherBlox Daily Observations layout. Learn more.

Left ArrowRight Arrow

39.01783, -85.05884

Hourly Observations for September 22, 2021

Temp ( °F °C ) Dew Point ( °F °C ) Humidity (%) Winds ( mph kmh ) Pressure ( in mb ) Visibility ( mi km ) Precip ( " mm )
12:52 am 00:52 Cloudy 71 21.7 68 20 90 90 S 6 9 29.92 1013 10 16 N/A
1:28 am 01:28 Cloudy 71 21.7 68 20 90 90 SSE 8 13 29.89 1012 10 16 N/A
1:52 am 01:52 Cloudy 71 21.7 68 20 90 90 S 7 11 29.89 1012 10 16 N/A
2:12 am 02:12 Cloudy 71 21.7 68 20 90 90 S 7 11 29.87 1012 10 16 N/A
2:52 am 02:52 Cloudy with Heavy Rain 67 19.4 64 17.8 91 91 N 16 26 29.87 1012 4 6 0.01 0.25
3:20 am 03:20 Cloudy with Light Rain 63 17.2 60 15.6 90 90 N 18 30 29.89 1012 9 14 0.07 1.78
3:22 am 03:22 Cloudy with Light Rain 63 17.2 60 15.6 90 90 NNW 20 31 29.89 1012 8 13 0.07 1.78
3:52 am 03:52 Cloudy with Light Rain 62 16.7 59 15 90 90 NNW 15 24 29.87 1012 10 16 0.15 3.81
4:52 am 04:52 Cloudy with Light Rain 61 16.1 58 14.4 90 90 NNW 14 22 29.85 1011 10 16 0.01 0.25
5:52 am 05:52 Cloudy with Light Rain 60 15.6 56 13.3 86 86 NW 21 33 29.87 1012 8 13 0.00 0.00
5:54 am 05:54 Cloudy with Light Rain 60 15.6 56 13.3 86 86 NW 21 33 29.89 1012 8 13 0.00 0.00
6:05 am 06:05 Cloudy with Heavy Rain 59 15 55 12.8 87 87 NNW 25 41 29.90 1013 3 4 0.01 0.25
6:20 am 06:20 Cloudy with Light Rain 58 14.4 55 12.8 90 90 NW 22 35 29.92 1013 3 5 0.04 1.02
6:52 am 06:52 Cloudy with Light Rain 57 13.9 54 12.2 90 90 NNW 26 43 29.90 1013 4 6 0.07 1.78
7:22 am 07:22 Cloudy 57 13.9 54 12.2 90 90 N 25 41 29.90 1012 8 13 0.01 0.25
7:52 am 07:52 Cloudy 58 14.4 54 12.2 87 87 N 22 35 29.88 1012 8 13 0.01 0.25
8:07 am 08:07 Cloudy 58 14.4 54 12.2 87 87 N 15 24 29.89 1012 10 16 N/A
8:35 am 08:35 Cloudy with Light Rain 58 14.4 54 12.2 87 87 N 17 28 29.90 1012 8 13 0.00 0.00
8:52 am 08:52 Cloudy with Light Rain 58 14.4 54 12.2 87 87 NNW 17 28 29.88 1012 9 14 0.00 0.00
9:44 am 09:44 Cloudy with Light Rain 58 14.4 55 12.8 90 90 NW 10 17 29.93 1013 8 13 0.01 0.25
9:52 am 09:52 Cloudy with Light Rain 58 14.4 55 12.8 90 90 N 15 24 29.88 1012 9 14 0.01 0.25
10:23 am 10:23 Cloudy with Heavy Rain 58 14.4 55 12.8 90 90 N 10 17 29.90 1012 3 5 0.05 1.27
10:36 am 10:36 Cloudy with Light Rain 58 14.4 55 12.8 90 90 NNW 10 17 29.90 1012 6 10 0.07 1.78
10:52 am 10:52 Cloudy with Light Rain 58 14.4 54 12.2 87 87 N 14 22 29.89 1012 6 10 0.07 1.78
11:12 am 11:12 Cloudy with Light Rain 58 14.4 55 12.8 90 90 N 10 17 29.92 1013 8 13 0.01 0.25
11:52 am 11:52 Cloudy with Light Rain 58 14.4 54 12.2 87 87 N 9 15 29.90 1013 8 13 0.02 0.51
12:44 pm 12:44 Cloudy with Light Rain 58 14.4 54 12.2 87 87 NNE 14 22 29.89 1012 10 16 0.01 0.25
12:52 pm 12:52 Cloudy with Light Rain 58 14.4 54 12.2 87 87 NNE 12 19 29.86 1011 8 13 0.02 0.51
1:22 pm 13:22 Cloudy with Light Rain 58 14.4 55 12.8 90 90 NNE 23 37 29.81 1009 10 16 0.01 0.25
1:52 pm 13:52 Cloudy with Light Rain 59 15 55 12.8 87 87 NNW 8 13 29.85 1011 10 16 0.02 0.51
2:52 pm 14:52 Cloudy with Light Rain 58 14.4 54 12.2 87 87 W 10 17 29.86 1011 6 10 0.00 0.00
2:57 pm 14:57 Cloudy with Light Rain 58 14.4 54 12.2 87 87 NW 9 15 29.88 1012 2 3 0.00 0.00
3:05 pm 15:05 Cloudy with Rain 58 14.4 55 12.8 90 90 WNW 10 17 29.87 1011 2 2 0.01 0.25
3:25 pm 15:25 Cloudy with Rain 57 13.9 55 12.8 93 93 WNW 12 19 29.88 1012 2 2 0.03 0.76
3:52 pm 15:52 Cloudy with Rain 57 13.9 55 12.8 93 93 WNW 15 24 29.87 1012 2 3 0.10 2.54
4:09 pm 16:09 Cloudy with Heavy Rain 57 13.9 54 12.2 90 90 NW 16 26 29.89 1012 3 4 0.06 1.52
4:21 pm 16:21 Cloudy with Light Rain 57 13.9 54 12.2 90 90 NW 16 26 29.89 1012 3 5 0.09 2.29
4:42 pm 16:42 Cloudy with Light Rain 56 13.3 54 12.2 93 93 NW 17 28 29.89 1012 4 6 0.09 2.29
4:52 pm 16:52 Cloudy with Light Rain 57 13.9 54 12.2 90 90 NW 15 24 29.87 1012 5 8 0.10 2.54
5:52 pm 17:52 Cloudy with Light Rain 56 13.3 53 11.7 90 90 NW 14 22 29.88 1012 8 13 0.04 1.02
6:07 pm 18:07 Cloudy with Light Rain 56 13.3 53 11.7 90 90 NW 16 26 29.89 1012 7 11 0.01 0.25
6:52 pm 18:52 Cloudy with Light Rain 56 13.3 53 11.7 90 90 NW 15 24 29.88 1012 7 11 0.07 1.78
7:52 pm 19:52 Cloudy with Light Rain 54 12.2 51 10.6 90 90 NW 18 30 29.88 1012 10 16 0.02 0.51
8:35 pm 20:35 Cloudy 54 12.2 50 10 87 87 NW 16 26 29.91 1013 10 16 0.00 0.00
8:52 pm 20:52 Cloudy with Light Rain 54 12.2 50 10 87 87 NW 20 31 29.91 1013 8 13 0.00 0.00
9:03 pm 21:03 Cloudy with Light Rain 54 12.2 51 10.6 90 90 NW 15 24 29.93 1014 4 6 0.00 0.00
9:52 pm 21:52 Cloudy with Light Rain 54 12.2 51 10.6 90 90 WNW 15 24 29.92 1013 5 8 0.04 1.02
10:52 pm 22:52 Cloudy 54 12.2 50 10 87 87 WNW 14 22 29.93 1013 10 16 0.01 0.25
11:31 pm 23:31 Cloudy with Light Rain 53 11.7 49 9.4 86 86 WNW 13 20 29.94 1014 10 16 0.00 0.00
11:52 pm 23:52 Cloudy with Light Rain 53 11.7 50 10 89 89 WNW 9 15 29.93 1013 10 16 0.01 0.25

Powered by AerisWeather